Youngstown, OH

12:07 PM EDT on July 24, 2017 (GMT -0400)
Youngstown-Warren Regional

Weather History for KYNG - October, 2013

Change the Weather History Date:

Tuesday, October 22, 2013

  Actual Average Record
Temperature  
Mean Temperature 42 °F 49 °F  
Max Temperature 49 °F 59 °F 80 °F (1979)
Min Temperature 35 °F 40 °F 28 °F (1992)
Degree Days  
Heating Degree Days 23 16  
Month to date heating degree days 180 284  
Since 1 July heating degree days 369 467  
Cooling Degree Days 0 0  
Month to date cooling degree days 21 3  
Year to date cooling degree days 630 541  
Moisture  
Dew Point 34 °F    
Average Humidity 68    
Maximum Humidity 93    
Minimum Humidity 42    
Precipitation  
Precipitation 0.12 in 0.09 in 0.99 in (1965)
Month to date precipitation 2.39 1.99  
Year to date precipitation 31.82 31.96  
Snow  
Snow 0.00 in 0.10 in - ()
Month to date snowfall 0.0 0.4  
Since 1 July snowfall 0.0 0.4  
Since 1 September snowfall 0.0 0.4  
Snow Depth 0.00 in    
Sea Level Pressure  
Sea Level Pressure 29.90 in    
Wind  
Wind Speed 8 mph (WSW)    
Max Wind Speed 16 mph    
Max Gust Speed 22 mph    
Visibility 10 miles    
Events Rain    
T = Trace of Precipitation, MM = Missing Value Source: NWS Daily Summary

Daily Weather History Graph

Daily Weather History Graph

Search for Another Location

Airport or City:

Trip Planner

Search our weather history database for the weather conditions in past years. The results will help you decide how hot, cold, wet, or windy it might be!

Date:

Astronomy

Oct. 22, 2013 Rise Set
Actual Time 7:42 AM EDT 6:31 PM EDT
Civil Twilight 7:14 AM EDT 6:59 PM EDT
Nautical Twilight 6:42 AM EDT 7:31 PM EDT
Astronomical Twilight 6:10 AM EDT 8:03 PM EDT
Moon 9:08 PM EDT (10/22) 11:11 AM EDT (10/22)
Length of Visible Light 11h 44m
Length of Day
10h 48m
Waning Gibbous, 87% of the Moon is Illuminated
Oct 22
Waning Gibbous
Oct 26
Last Quarter
Nov 3
New
Nov 10
First Quarter
Nov 17
Full

Hourly Weather History & Observations

Time (EDT) Temp. Windchill Dew Point Humidity Pressure Visibility Wind Dir Wind Speed Gust Speed Precip Events Conditions
12:18 AM 50.0 °F - 46.4 °F 87% 29.86 in 8.0 mi WSW 8.1 mph 17.3 mph 0.00 in Rain Rain
12:32 AM 50.0 °F - 46.4 °F 87% 29.86 in 7.0 mi WSW 10.4 mph - 0.01 in Rain Light Rain
12:51 AM 48.9 °F - 46.9 °F 93% 29.85 in 10.0 mi SW 6.9 mph - 0.02 in Rain Light Rain
1:30 AM 48.2 °F - 46.4 °F 93% 29.84 in 9.0 mi SW 8.1 mph - 0.02 in Rain Light Rain
1:51 AM 48.9 °F - 46.9 °F 93% 29.85 in 9.0 mi WSW 8.1 mph - 0.02 in Rain Light Rain
2:51 AM 46.9 °F - 45.0 °F 93% 29.86 in 5.0 mi West 8.1 mph - 0.05 in Rain Light Rain
3:51 AM 44.1 °F 39.5 °F 39.9 °F 85% 29.87 in 10.0 mi West 8.1 mph - 0.04 in Rain Light Rain
4:06 AM 44.6 °F 39.7 °F 39.2 °F 81% 29.87 in 7.0 mi West 9.2 mph - 0.00 in Rain Light Rain
4:24 AM 42.8 °F 36.6 °F 39.2 °F 87% 29.88 in 10.0 mi WSW 11.5 mph - 0.01 in   Overcast
4:51 AM 42.1 °F 35.7 °F 37.0 °F 82% 29.88 in 10.0 mi West 11.5 mph - 0.01 in Rain Light Rain
5:51 AM 39.9 °F 34.5 °F 33.1 °F 77% 29.89 in 10.0 mi West 8.1 mph - 0.00 in   Mostly Cloudy
6:51 AM 37.9 °F 30.0 °F 33.1 °F 83% 29.91 in 10.0 mi WSW 12.7 mph - N/A   Scattered Clouds
7:51 AM 36.0 °F 28.5 °F 30.9 °F 82% 29.92 in 10.0 mi WSW 10.4 mph - N/A   Scattered Clouds
8:26 AM 37.4 °F 29.8 °F 32.0 °F 81% 29.92 in 10.0 mi WSW 11.5 mph - N/A   Overcast
8:51 AM 37.0 °F 28.9 °F 30.9 °F 79% 29.94 in 10.0 mi WSW 12.7 mph - N/A   Overcast
9:30 AM 37.4 °F 29.8 °F 30.2 °F 75% 29.94 in 10.0 mi West 11.5 mph - N/A   Mostly Cloudy
9:51 AM 39.9 °F 33.4 °F 30.0 °F 68% 29.96 in 10.0 mi West 10.4 mph - N/A   Scattered Clouds
10:51 AM 42.1 °F 35.2 °F 30.0 °F 62% 29.96 in 10.0 mi West 12.7 mph 18.4 mph N/A   Mostly Cloudy
11:51 AM 45.0 °F 39.3 °F 30.0 °F 56% 29.96 in 10.0 mi WSW 11.5 mph - N/A   Scattered Clouds
12:51 PM 46.9 °F - 28.0 °F 48% 29.94 in 10.0 mi West 11.5 mph - N/A   Mostly Cloudy
1:51 PM 46.9 °F - 28.0 °F 48% 29.92 in 10.0 mi West 8.1 mph - N/A   Scattered Clouds
2:51 PM 48.0 °F - 27.0 °F 44% 29.91 in 10.0 mi SW 11.5 mph - N/A   Mostly Cloudy
3:51 PM 48.0 °F - 27.0 °F 44% 29.89 in 10.0 mi West 8.1 mph 17.3 mph N/A   Mostly Cloudy
4:51 PM 46.9 °F - 27.0 °F 46% 29.89 in 10.0 mi WSW 8.1 mph - N/A   Mostly Cloudy
5:51 PM 46.9 °F - 27.0 °F 46% 29.89 in 10.0 mi WSW 6.9 mph - N/A   Mostly Cloudy
6:51 PM 42.1 °F 40.2 °F 27.0 °F 55% 29.91 in 10.0 mi SW 3.5 mph - N/A   Mostly Cloudy
7:51 PM 39.0 °F 36.8 °F 30.0 °F 70% 29.91 in 10.0 mi SSW 3.5 mph - N/A   Mostly Cloudy
8:51 PM 39.0 °F - 30.9 °F 73% 29.90 in 10.0 mi Calm Calm - N/A   Mostly Cloudy
9:51 PM 37.9 °F - 32.0 °F 79% 29.91 in 10.0 mi Calm Calm - N/A   Overcast
10:51 PM 39.9 °F - 30.9 °F 70% 29.90 in 10.0 mi Calm Calm - N/A   Overcast
11:51 PM 39.0 °F 34.8 °F 33.1 °F 79% 29.88 in 10.0 mi WSW 5.8 mph - N/A   Overcast